Imperial, CA

9:53 PM PST on January 20, 2017 (GMT -0800)
Imperial

Weather History for KIPL - September, 2013

Change the Weather History Date:

Sunday, September 22, 2013

  Actual Average Record
Temperature  
Mean Temperature 78 °F -  
Max Temperature 90 °F 96 °F 112 °F (1949)
Min Temperature 68 °F 68 °F 55 °F (2004)
Cooling Degree Days 14    
Growing Degree Days 28 (Base 50)    
Moisture  
Dew Point 41 °F    
Average Humidity 30    
Maximum Humidity 53    
Minimum Humidity 10    
Precipitation  
Precipitation 0.00 in - - ()
Sea Level Pressure  
Sea Level Pressure 29.70 in    
Wind  
Wind Speed 14 mph (WNW)    
Max Wind Speed 25 mph    
Max Gust Speed 38 mph    
Visibility 10 miles    
Events      
Averages and records for this station are not official NWS values.
T = Trace of Precipitation, MM = Missing Value Source: NWS Daily Summary

Daily Weather History Graph

Daily Weather History Graph

Search for Another Location

Airport or City:

Trip Planner

Search our weather history database for the weather conditions in past years. The results will help you decide how hot, cold, wet, or windy it might be!

Date:

Astronomy

Sep. 22, 2013 Rise Set
Actual Time 6:30 AM PDT 6:38 PM PDT
Civil Twilight 6:06 AM PDT 7:03 PM PDT
Nautical Twilight 5:37 AM PDT 7:31 PM PDT
Astronomical Twilight 5:08 AM PDT 8:00 PM PDT
Moon 8:45 PM PDT (9/22) 9:42 AM PDT (9/22)
Length of Visible Light 12h 57m
Length of Day
12h 07m
Waning Gibbous, 88% of the Moon is Illuminated
Sep 22
Waning Gibbous
Sep 26
Last Quarter
Oct 4
New
Oct 11
First Quarter
Oct 18
Full

Hourly Weather History & Observations

Time (PDT) Temp. Dew Point Humidity Pressure Visibility Wind Dir Wind Speed Gust Speed Precip Events Conditions
12:53 AM 73.0 °F 51.1 °F 46% 29.66 in 10.0 mi West 19.6 mph 27.6 mph N/A   Clear
1:53 AM 71.1 °F 53.1 °F 53% 29.65 in 10.0 mi West 21.9 mph 33.4 mph N/A   Clear
2:53 AM 72.0 °F 50.0 °F 46% 29.64 in 7.0 mi West 23.0 mph 29.9 mph N/A   Clear
3:53 AM 71.1 °F 48.9 °F 45% 29.64 in 10.0 mi West 25.3 mph 38.0 mph N/A   Clear
4:53 AM 70.0 °F 48.9 °F 47% 29.67 in 10.0 mi West 20.7 mph 26.5 mph N/A   Clear
5:53 AM 69.1 °F 50.0 °F 51% 29.69 in 10.0 mi West 16.1 mph 25.3 mph N/A   Clear
6:53 AM 68.0 °F 48.0 °F 49% 29.71 in 10.0 mi West 11.5 mph - N/A   Clear
7:53 AM 72.0 °F 48.9 °F 44% 29.72 in 10.0 mi West 16.1 mph 23.0 mph N/A   Clear
8:53 AM 75.0 °F 48.0 °F 38% 29.75 in 10.0 mi WNW 10.4 mph 16.1 mph N/A   Clear
9:53 AM 78.1 °F 45.0 °F 31% 29.74 in 10.0 mi WNW 16.1 mph - N/A   Clear
10:53 AM 82.0 °F 39.9 °F 22% 29.74 in 10.0 mi NW 9.2 mph 19.6 mph N/A   Clear
11:53 AM 84.9 °F 39.9 °F 20% 29.73 in 10.0 mi NW 10.4 mph - N/A   Clear
12:53 PM 86.0 °F 37.9 °F 18% 29.72 in 10.0 mi North 9.2 mph - N/A   Clear
1:53 PM 87.1 °F 33.1 °F 15% 29.70 in 10.0 mi North 10.4 mph 17.3 mph N/A   Clear
2:53 PM 88.0 °F 30.9 °F 13% 29.68 in 10.0 mi North 10.4 mph 17.3 mph N/A   Clear
3:53 PM 88.0 °F 28.9 °F 12% 29.67 in 10.0 mi NW 6.9 mph - N/A   Clear
4:53 PM 89.1 °F 25.0 °F 10% 29.66 in 10.0 mi NNW 4.6 mph - N/A   Clear
5:53 PM 88.0 °F 28.0 °F 12% 29.66 in 10.0 mi North 4.6 mph - N/A   Clear
6:53 PM 84.9 °F 30.9 °F 14% 29.67 in 10.0 mi Calm Calm - N/A   Clear
7:53 PM 82.9 °F 30.0 °F 15% 29.69 in 10.0 mi Calm Calm - N/A   Clear
8:53 PM 80.1 °F 30.9 °F 17% 29.71 in 10.0 mi East 4.6 mph - N/A   Clear
9:53 PM 73.0 °F 42.1 °F 33% 29.73 in 10.0 mi Calm Calm - N/A   Clear
10:53 PM 75.0 °F 46.0 °F 36% 29.74 in 10.0 mi Calm Calm - N/A   Clear
11:53 PM 71.1 °F 42.1 °F 35% 29.74 in 10.0 mi SW 3.5 mph - N/A   Clear